Regional Weather Roundup
Issued by NWS

Home | Current Version | Previous Version | Graphics & Text | Print | Product List | Glossary On
Versions: 1 2 3 4 5 6 7 8 9 10 11 12 13 14 15 16 17 18 19 20 21 22 23 24 25 26 27 28 29 30 31 32 33 34 35 36 37 38 39 40 41 42 43 44 45 46 47 48 49 50
767
ASUS43 KFSD 251510
RWRSD

WEATHER ROUNDUP FOR SOUTH DAKOTA
NATIONAL WEATHER SERVICE SIOUX FALLS SD
900 AM CST SAT FEB 25 2017

NOTE: "FAIR" INDICATES FEW OR NO CLOUDS BELOW 12,000 FEET WITH NO
SIGNIFICANT WEATHER AND/OR OBSTRUCTIONS TO VISIBILITY.


SDZ001>005-009-010-012>017-251600-
NORTHWEST AND NORTH CENTRAL SOUTH DAKOTA

CITY           SKY/WX    TMP DP  RH WIND       PRES   REMARKS
BUFFALO          N/A     27  22  81 W15       29.80S WCI  15
FAITH            N/A     23  21  92 SW6       29.88S WCI  16
MOBRIDGE       PTSUNNY   25  15  66 S8        29.88F WCI  16
$$

SDZ012>016-024>037-041>051-057-063-072>074-251600-
SOUTHWEST AND SOUTH CENTRAL SOUTH DAKOTA

CITY           SKY/WX    TMP DP  RH WIND       PRES   REMARKS
RAPID CTY ARPT CLOUDY    24  15  68 W3        29.89F
PIERRE         SUNNY     24  16  71 SW9       29.94F WCI  14
CUSTER         CLOUDY    16   8  71 NW3       29.79S
ELLSWORTH AFB  CLOUDY    23  17  80 NW5       29.88F WCI  17
PHILIP         CLOUDY    22  16  78 SW10      29.93F WCI  11
PINE RIDGE     CLOUDY    14  10  84 SW10      29.94S WCI   1
SPEARFISH      CLOUDY    25  18  74 W12       29.87F WCI  14
WINNER         CLOUDY    18  11  74 SW10      29.98F WCI   6
$$

SDZ004>011-016>023-039-040-251600-
NORTHEAST SOUTH DAKOTA

CITY           SKY/WX    TMP DP  RH WIND       PRES   REMARKS
ABERDEEN       MOSUNNY   23  17  78 S8        29.96F WCI  14
WATERTOWN      CLOUDY    20  16  84 SW8       29.96S WCI  10
BROOKINGS      CLOUDY    22  18  85 W8        29.99S WCI  12
SISSETON         N/A     24  18  77 W8        29.95F WCI  15
$$

SDZ017-020-022-023-036>040-048>070-251600-
SOUTHEAST SOUTH DAKOTA

CITY           SKY/WX    TMP DP  RH WIND       PRES   REMARKS
SIOUX FALLS    PTSUNNY   18  15  88 W3        30.03S
HURON          CLOUDY    24  18  77 SW9       30.00F WCI  14
CHAMBERLAIN    CLOUDY    24  18  76 S10       29.99F WCI  14
MITCHELL       CLOUDY    24  17  74 SW9       30.04F WCI  14
YANKTON        CLOUDY    19  12  73 S3        30.07F
$$

ABBREVIATIONS USED IN REMARKS
   TC - TEMPERATURE IN CELSIUS
  WCI - WIND CHILL INDEX
   HX - HEAT INDEX
  VSB - VISIBILITY





USA.gov is the U.S. government's official web portal to all federal, state and local government web resources and services.